Kinloss, United Kingdom

5:41 AM GMT on February 21, 2018 (GMT +0000)
Kinloss Air Base

Weather History for EGQK - March, 2013

Change the Weather History Date:

Saturday, March 2, 2013

  Actual Average Record
Temperature  
Mean Temperature 45 °F -  
Max Temperature 49 °F 47 °F 53 °F (2009)
Min Temperature 41 °F 35 °F 19 °F (2001)
Degree Days  
Heating Degree Days 20    
Moisture  
Dew Point 40 °F    
Average Humidity 79    
Maximum Humidity 93    
Minimum Humidity 63    
Precipitation  
Precipitation 0.02 in 0.06 in - ()
Sea Level Pressure  
Sea Level Pressure 30.26 in    
Wind  
Wind Speed 10 mph ()    
Max Wind Speed 17 mph    
Max Gust Speed -    
Visibility 6.8 miles    
Events Rain    
Averages and records for this station are not official NWS values.
T = Trace of Precipitation, MM = Missing Value Source: Averaged Metar Reports

Daily Weather History Graph

Daily Weather History Graph

Search for Another Location

Airport or City:

Trip Planner

Search our weather history database for the weather conditions in past years. The results will help you decide how hot, cold, wet, or windy it might be!

Date:

Astronomy

Mar. 02, 2013 Rise Set
Actual Time 7:05 AM GMT 5:48 PM GMT
Civil Twilight 6:26 AM GMT 6:27 PM GMT
Nautical Twilight 5:41 AM GMT 7:12 PM GMT
Astronomical Twilight 4:56 AM GMT 7:58 PM GMT
Moon No Moon Rise 8:12 AM GMT (3/2)
Length of Visible Light 12h 00m
Length of Day
10h 42m
Waning Gibbous, 76% of the Moon is Illuminated
Mar 2
Waning Gibbous
Mar 4
Last Quarter
Mar 11
New
Mar 19
First Quarter
Mar 27
Full

Hourly Weather History & Observations

Time (GMT) Temp. Windchill Dew Point Humidity Pressure Visibility Wind Dir Wind Speed Gust Speed Precip Events Conditions
12:50 AM 44.6 °F 38.8 °F 37.4 °F 76% 30.33 in 6.2 mi WSW 11.5 mph - N/A   Mostly Cloudy
1:50 AM 44.6 °F 38.8 °F 37.4 °F 76% 30.30 in 6.2 mi WSW 11.5 mph - N/A   Mostly Cloudy
2:50 AM 45 °F - 37 °F 65% 30.31 in 34 mi WSW 13.8 mph - -   Mostly Cloudy
2:50 AM 44.6 °F 38.1 °F 37.4 °F 76% 30.30 in 6.2 mi WSW 13.8 mph - N/A   Mostly Cloudy
3:50 AM 44.6 °F 37.8 °F 37.4 °F 76% 30.27 in 6.2 mi WSW 15.0 mph - N/A   Partly Cloudy
4:50 AM 42.8 °F 35.1 °F 37.4 °F 81% 30.27 in 6.2 mi WSW 16.1 mph - N/A   Unknown
5:50 AM 44 °F - 37 °F 70% 30.29 in 47 mi SW 9.2 mph - -  
5:50 AM 44.6 °F 39.7 °F 37.4 °F 76% 30.27 in 6.2 mi SW 9.2 mph - N/A   Mostly Cloudy
6:50 AM 44.6 °F 38.8 °F 37.4 °F 76% 30.24 in - SW 11.5 mph - N/A   Scattered Clouds
7:50 AM 46.4 °F 41.5 °F 39.2 °F 76% 30.27 in 6.2 mi WSW 10.4 mph - N/A   Mostly Cloudy
8:50 AM 46 °F - 39 °F 69% 30.27 in 47 mi West 13.8 mph - -   Mostly Cloudy
8:50 AM 46.4 °F 40.4 °F 39.2 °F 76% 30.27 in 6.2 mi West 13.8 mph - N/A   Mostly Cloudy
9:50 AM 46.4 °F 41.1 °F 41.0 °F 81% 30.27 in 6.2 mi WSW 11.5 mph - N/A   Mostly Cloudy
10:50 AM 48.2 °F - 41.0 °F 76% 30.24 in 6.2 mi WSW 17.3 mph - N/A   Mostly Cloudy
11:50 AM 49 °F - 40 °F 63% 30.27 in 47 mi West 16.1 mph - -   Mostly Cloudy
11:50 AM 50.0 °F - 41.0 °F 71% 30.24 in 6.2 mi West 16.1 mph - N/A   Mostly Cloudy
12:50 PM 48.2 °F - 41.0 °F 76% 30.24 in 6.2 mi West 13.8 mph - N/A Rain Light Rain Showers
1:50 PM 48.2 °F - 42.8 °F 82% 30.24 in 6.2 mi West 12.7 mph - N/A   Scattered Clouds
2:50 PM 49 °F - 43 °F 72% 30.25 in 47 mi West 10.4 mph - - Rain Rain
2:50 PM 50.0 °F - 42.8 °F 76% 30.24 in 6.2 mi West 10.4 mph - N/A   Scattered Clouds
3:50 PM 44.6 °F 39.7 °F 42.8 °F 93% 30.24 in - NW 9.2 mph - N/A   Heavy Drizzle
4:50 PM 46.4 °F - 42.8 °F 87% 30.24 in 6.2 mi NE 2.3 mph - N/A   Mostly Cloudy
5:50 PM 45 °F - 41 °F 82% 30.26 in 34 mi NW 2.3 mph - -   Scattered Clouds
5:50 PM 44.6 °F - 41.0 °F 87% 30.24 in 6.2 mi NW 2.3 mph - N/A   Mostly Cloudy
6:50 PM 42.8 °F 41.1 °F 39.2 °F 87% 30.24 in 6.2 mi WNW 3.5 mph - N/A   Mostly Cloudy
7:50 PM 42.8 °F 39.3 °F 39.2 °F 87% 30.27 in 6.2 mi NW 5.8 mph - N/A   Mostly Cloudy
8:50 PM 43 °F - 40 °F 84% 30.27 in 19 mi SE 2.3 mph - -   Mostly Cloudy
8:50 PM 42.8 °F - 39.2 °F 87% 30.27 in 6.2 mi SE 2.3 mph - N/A   Mostly Cloudy
9:50 PM 41.0 °F - 39.2 °F 93% 30.27 in 6.2 mi NW 1.2 mph - N/A   Overcast
10:50 PM 42.8 °F 41.1 °F 39.2 °F 87% 30.27 in 6.2 mi SSW 3.5 mph - N/A   Overcast
11:50 PM 42 °F - 40 °F 88% 30.26 in 22 mi SW 3.5 mph - -   Overcast
11:50 PM 42.8 °F 41.1 °F 39.2 °F 87% 30.24 in 6.2 mi SW 3.5 mph - N/A   Overcast